{"data":{"norad_id":57460,"epoch":"2026-05-24T17:58:53.176512Z","epoch_age_seconds":93368,"freshness":"FRESH","line1":"1 57460U 23107D   26144.74922658  .00000871  00000+0  41162-4 0  9998","line2":"2 57460  43.0025 266.2051 0001328 275.2807  84.7893 15.27579632156788","mean_motion":15.27579632,"eccentricity":0.0001328,"inclination_deg":43.0025,"raan_deg":266.2051,"arg_perigee_deg":275.2807,"mean_anomaly_deg":84.7893,"bstar":4.1162e-5,"rev_number":15678,"period_min":94.266771422886,"perigee_km":482.13903230437,"apogee_km":483.96136362415,"semimajor_km":6861.1871979643,"source":"CELESTRAK","updated_at":"2026-05-25T13:38:18.323651Z"}}